sat.trackr.live / text

‹ back to catalog

STARLINK-34143

NORAD 63896 · 2025-095G

PAYLOAD ACTIVE UNKNOWN

§ Identity

Operator
Country
US
Launch date
2025-05-10
Launch site
AFETR
Launch vehicle
Mass (kg)
RCS (m²)

Purposes: comms

External: N2YO · Heavens-Above · Gunter

§ Orbital elements

Epoch: 2026-09-20T02:45:23.795136Z

Period
94.27 min
Inclination
43.0011°
Eccentricity
0.0001272
Mean motion
15.27584654 rev/d
Perigee alt
482.2 km
Apogee alt
483.9 km
Semi-major
6,861.2 km
B*
3.7472e-4
RAAN
158.1199°
Arg perigee
282.8375°
Mean anomaly
77.2335°
Rev number
7,752

§ Raw data

STARLINK-341431 63896U 25095G   26263.11485874  .00010065  00000+0  37472-3 0  99972 63896  43.0011 158.1199 0001272 282.8375  77.2335 15.27584654 77529

JSON: /api/v1/satellites/63896 · /tle

For live sub-satellite position, see the globe view (requires WebGL).

§ Visibility from observer

Set your observer location to see the next 7 days of passes ≥ 10°. The values pass through the URL so the page stays shareable.

No JS? Fill the form by hand. The geolocation button needs JavaScript.